Theta_e
298 294 291 291 293 292 294 293 293 293 292 291 291 291 290 291 292 294 293 294 294 290 291 291 292 292 293 294 294 294 293 292 290 289 289 289 289 290 290 290 290 291 291 295 295 295 296 296 297 297 297 297 297 296 298 299 300 300 300 301 300 301 301 302 302 304 305 306 313 317 316 317 321 322 323 322 324 326 325 325 325 324 325 325 324 325
296 292 293 295 293 292 293 292 291 291 290 290 291 291 290 292 290 292 292 293 294 289 289 292 291 291 292 293 293 294 292 289 289 288 288 289 289 289 289 290 290 291 293 294 293 294 295 295 296 296 296 296 295 295 296 297 298 299 299 299 300 300 300 301 302 302 302 305 306 310 315 317 318 320 320 320 323 322 324 326 326 324 324 322 321 321
293 290 294 293 292 291 290 290 290 291 291 293 291 291 290 291 291 293 292 293 292 290 288 291 289 290 292 292 292 292 290 289 289 289 288 288 288 288 289 289 290 290 291 291 292 293 293 294 295 295 295 295 295 296 297 298 298 298 297 298 298 299 300 300 300 300 301 302 303 305 310 314 316 320 320 322 323 325 324 324 325 326 324 322 320 320
288 293 291 292 291 290 290 289 290 291 293 291 291 289 288 291 288 286 292 292 291 289 288 290 288 289 291 294 291 291 290 290 290 290 290 290 288 288 288 289 289 289 289 290 290 291 292 293 293 294 294 294 295 295 295 296 297 297 297 298 299 299 300 300 300 300 301 301 302 305 306 312 316 316 317 320 321 323 324 323 323 324 325 325 321 319
288 291 290 290 291 290 291 292 291 292 290 293 291 290 289 288 288 287 287 289 290 292 290 289 287 287 289 289 289 290 292 291 290 289 289 290 290 290 291 290 291 290 290 290 290 291 291 292 292 293 294 294 294 294 295 296 296 296 297 297 298 299 298 299 300 300 300 299 301 302 304 307 310 315 317 317 317 319 320 321 323 323 324 324 322 319
291 290 290 291 292 292 292 291 292 291 289 291 289 288 288 289 287 287 289 287 286 286 287 286 279 281 288 288 289 290 289 287 288 287 287 288 288 289 288 289 290 291 291 290 290 290 291 291 292 293 293 293 294 294 294 295 296 296 297 297 299 299 299 298 299 300 299 299 298 299 299 300 302 304 307 309 312 315 316 316 320 323 322 322 323 320
289 290 291 292 291 292 292 290 292 291 289 287 288 288 289 289 288 288 287 286 282 280 287 288 278 276 286 287 288 287 286 285 286 286 286 287 287 288 288 288 289 289 290 290 290 289 290 291 291 291 292 293 293 294 295 295 296 296 296 297 298 299 299 299 299 300 299 298 298 298 298 300 302 303 306 310 313 315 317 318 318 319 321 322 321 321
289 290 290 292 291 290 290 289 291 290 289 286 289 289 289 288 286 286 286 286 284 289 289 287 285 279 279 286 288 287 284 283 284 284 285 286 286 287 287 288 288 288 288 288 288 288 289 289 291 291 291 292 292 294 294 295 295 295 296 296 297 298 298 299 300 299 299 298 298 297 298 299 300 302 304 307 309 313 315 317 318 318 319 321 321 320
289 290 289 290 289 289 289 290 290 290 289 289 289 289 288 287 287 287 287 285 285 283 279 285 287 280 281 286 288 287 283 283 282 283 284 285 286 287 287 287 287 288 288 288 287 288 289 289 289 290 291 293 293 294 294 294 295 295 296 296 296 297 298 298 299 299 299 299 298 298 298 296 298 300 302 306 309 310 313 315 317 318 319 320 321 321
290 289 291 290 289 288 290 289 288 290 288 290 289 289 289 289 289 288 285 283 283 280 276 281 285 279 279 285 284 284 282 280 281 283 284 285 286 286 286 287 287 287 288 288 288 288 289 289 289 291 291 291 291 293 295 295 295 295 295 295 295 296 297 298 299 299 299 299 298 298 297 297 297 299 300 302 304 307 310 312 315 316 317 318 318 319
289 291 291 290 290 290 289 288 289 288 286 287 288 289 287 287 286 286 285 283 280 276 279 283 283 279 272 280 280 281 280 280 281 283 284 285 286 286 286 286 286 286 287 287 288 288 289 289 290 290 290 290 291 292 292 294 294 295 295 295 294 295 296 297 297 299 299 299 299 298 297 297 297 298 298 299 300 303 305 307 312 314 317 318 316 316
290 291 291 291 291 290 291 289 289 289 289 287 286 284 284 283 283 281 281 282 274 274 280 282 279 279 270 276 281 282 283 282 282 281 282 283 284 284 285 285 286 287 287 287 287 287 288 288 289 289 289 289 290 291 292 292 292 293 293 294 293 294 295 296 296 297 299 299 299 299 298 297 297 297 297 298 298 300 302 304 307 311 315 316 317 316
288 288 289 290 291 290 291 289 290 289 288 288 286 284 278 275 277 274 278 273 276 275 280 280 279 275 277 281 282 282 282 283 284 284 283 283 283 284 285 286 286 287 286 286 286 287 287 287 287 287 288 289 289 290 291 291 292 293 292 292 292 292 293 294 296 296 297 298 298 298 298 297 297 297 298 298 298 299 300 302 303 304 310 315 315 315
286 286 287 289 291 290 291 286 286 285 285 285 283 280 276 272 271 269 273 275 274 279 279 278 279 274 279 282 285 282 283 284 284 285 285 285 284 284 285 285 286 286 286 286 286 286 286 287 287 288 288 288 289 289 290 291 291 292 292 291 291 292 293 294 296 296 296 298 298 298 298 298 297 296 297 297 297 298 299 300 300 302 303 310 314 314
281 282 285 288 286 289 288 286 285 284 283 284 286 281 278 275 272 267 271 269 270 272 275 280 274 274 275 281 285 283 284 285 285 285 286 286 285 285 285 286 286 285 286 286 286 286 286 287 287 287 288 288 288 289 289 289 291 291 291 291 291 291 292 292 294 295 295 296 298 298 298 298 298 297 296 296 297 296 297 297 299 300 301 303 312 315
282 284 285 287 287 287 286 287 287 285 284 282 283 285 280 278 282 273 275 272 271 271 271 275 274 279 278 285 285 283 285 284 285 285 285 284 284 285 284 284 284 285 285 285 285 286 286 287 288 288 288 288 288 289 289 289 289 289 289 289 290 291 291 292 292 294 295 296 297 298 298 298 297 297 297 296 297 296 297 297 297 298 300 302 306 315
282 281 285 285 286 283 282 285 286 286 277 282 281 277 279 283 280 276 275 276 272 273 271 278 277 280 284 283 281 283 283 283 283 283 283 282 283 283 283 283 284 284 284 285 285 285 286 287 287 287 287 288 288 288 288 288 288 289 289 289 290 290 291 292 292 293 295 295 296 297 298 297 297 297 297 296 296 296 296 296 297 298 299 300 303 310
281 282 285 286 283 284 285 284 284 284 286 282 277 279 283 285 280 276 269 272 271 268 269 276 272 274 275 271 281 281 280 281 281 281 282 282 282 282 282 283 283 284 284 285 285 286 287 287 287 288 288 288 288 287 287 287 289 289 289 290 290 290 290 291 292 292 294 295 295 297 298 298 297 297 297 297 296 296 296 296 296 296 297 298 300 305
285 279 284 285 283 283 285 286 283 284 286 281 279 286 277 272 272 276 271 265 266 266 268 271 274 274 276 275 279 278 278 279 280 281 280 280 281 281 282 282 283 284 284 284 285 285 286 286 286 287 287 288 288 287 287 288 289 289 290 290 290 290 290 291 292 292 293 295 296 297 298 298 297 297 297 297 297 296 295 295 295 295 296 297 298 300
286 278 280 282 283 283 284 282 277 279 283 282 283 281 284 278 275 270 274 271 271 266 267 268 272 268 277 277 277 278 279 279 279 279 279 280 281 281 281 282 282 283 283 284 284 285 286 286 286 286 285 285 286 286 287 287 285 284 284 284 285 288 291 291 291 292 292 294 295 296 297 298 297 297 297 297 296 296 295 295 295 295 295 296 297 298
282 286 276 282 283 281 277 281 279 280 277 277 278 277 278 278 278 276 275 271 269 267 266 266 265 272 278 279 279 279 280 280 280 279 280 280 281 282 282 282 282 283 283 284 285 285 285 285 286 286 285 285 285 285 283 282 282 282 282 282 283 284 284 289 291 291 292 293 294 295 296 297 297 296 297 297 297 296 295 295 295 295 295 296 295 296
280 282 277 279 278 278 280 282 281 281 281 279 279 277 278 274 271 269 267 276 267 269 266 266 264 272 279 281 280 280 281 281 281 280 280 280 281 281 282 282 283 283 284 284 285 285 285 284 284 285 285 284 283 281 280 279 279 280 280 281 282 284 285 288 290 291 292 293 294 294 295 296 297 297 297 296 296 296 295 295 295 295 295 294 295 296
282 282 279 276 279 279 278 279 281 282 282 281 280 278 279 277 276 271 266 269 270 272 271 269 266 268 279 281 281 281 281 281 281 281 280 281 281 281 282 283 283 284 284 284 284 284 285 285 284 284 282 281 280 279 278 278 277 278 279 279 281 282 283 285 286 289 291 292 292 293 295 296 296 296 296 295 296 295 295 295 295 295 294 294 294 295
283 276 275 278 279 277 279 280 281 281 281 278 279 278 278 275 277 273 272 273 269 270 268 268 266 270 279 281 281 282 282 282 282 281 280 280 281 281 282 282 283 283 284 285 284 284 283 283 284 282 280 279 278 277 278 277 278 277 277 277 278 279 281 282 283 285 288 290 292 293 293 294 296 296 295 295 295 295 295 295 295 294 294 294 294 294
277 280 276 273 274 273 273 276 277 279 278 277 277 279 278 278 277 276 276 275 267 269 269 267 261 268 279 281 282 281 281 280 280 281 281 280 281 281 282 282 283 284 283 282 282 283 283 282 281 279 278 278 277 277 277 277 277 275 277 278 277 277 278 278 280 281 283 287 290 292 292 293 294 295 295 295 295 295 295 295 294 294 293 293 293 293
279 278 276 271 269 268 268 269 271 271 274 276 278 276 278 275 275 273 269 271 267 270 271 267 267 274 279 281 280 280 280 279 280 281 281 281 281 281 281 282 282 281 282 282 282 281 281 280 279 279 276 275 276 276 275 276 277 277 275 275 277 277 277 277 277 277 279 281 282 286 289 291 293 294 294 294 294 295 295 295 294 293 293 293 292 292
277 278 277 276 274 273 275 276 277 278 276 272 275 276 275 276 276 275 273 269 266 269 268 270 271 272 274 276 277 278 279 278 278 279 279 280 281 281 282 282 281 281 281 281 281 280 279 278 277 277 278 276 274 275 275 274 276 276 275 274 275 275 276 276 276 276 276 278 280 280 282 287 290 292 293 294 294 295 295 294 293 292 293 293 291 290
277 274 276 277 277 277 277 276 277 277 274 275 274 274 276 275 275 272 270 268 274 269 265 273 274 271 273 276 277 277 278 278 279 279 279 280 281 281 281 281 281 280 280 280 279 278 277 276 277 277 274 275 276 273 274 275 274 274 273 273 273 274 274 274 274 275 275 276 277 278 280 282 286 289 292 294 294 295 294 293 292 293 293 292 290 290
276 273 276 277 275 277 277 277 277 275 276 275 275 275 274 276 274 270 271 274 273 269 267 272 274 272 274 276 277 278 278 278 278 279 280 281 282 281 280 279 279 279 279 278 277 276 275 275 274 275 276 274 272 273 273 272 271 273 273 273 273 273 273 274 274 274 274 275 275 276 277 279 282 287 290 292 293 294 293 293 292 292 292 291 290 290
277 275 275 276 274 275 276 276 277 276 275 275 275 275 276 275 275 275 273 274 274 272 273 274 274 273 276 277 278 279 280 280 280 281 281 281 280 279 279 278 278 277 277 276 275 275 274 274 274 273 272 272 272 271 271 271 271 271 271 271 272 272 274 274 274 274 274 274 274 275 276 277 277 279 281 285 290 292 292 291 291 290 290 289 289 289
276 273 276 275 273 273 276 277 277 276 275 273 275 275 275 275 275 275 274 274 275 274 274 274 273 273 277 280 279 280 280 281 280 280 280 280 279 278 278 277 277 276 276 275 274 273 273 272 272 272 273 271 270 270 270 270 270 270 270 271 271 272 273 274 273 273 274 274 275 275 276 276 277 277 278 281 285 287 289 290 289 289 289 289 289 289
279 274 276 274 271 271 275 274 275 275 274 273 272 273 274 274 272 274 273 275 273 271 273 273 271 272 277 280 279 280 279 279 278 279 279 279 278 278 277 276 275 275 274 274 274 272 271 271 273 272 270 270 270 269 269 269 269 269 269 270 271 271 272 272 273 273 274 274 275 275 276 276 276 276 277 279 282 284 286 287 288 288 288 288 288 288
278 275 272 273 270 271 273 273 272 272 271 268 270 273 275 275 276 276 276 276 275 275 271 269 271 276 277 279 277 277 278 278 279 279 278 278 278 278 277 275 274 274 273 273 272 274 274 272 270 270 270 270 269 269 269 269 268 268 269 269 270 271 271 272 272 273 273 274 274 275 275 276 275 275 276 277 279 282 284 285 286 287 287 287 288 288
278 276 273 276 269 269 270 271 272 269 264 267 277 279 277 274 274 273 273 275 276 276 274 276 276 278 278 278 277 277 277 278 278 279 279 278 277 278 276 275 274 273 273 272 272 272 273 271 270 270 270 269 270 269 269 269 268 269 269 269 270 270 270 270 271 272 273 274 274 275 275 275 275 275 276 277 279 281 283 284 285 286 288 288 288 288
275 275 273 276 270 269 269 269 267 264 266 276 277 279 277 277 277 275 275 276 276 277 277 276 277 277 278 278 278 279 279 280 280 278 278 279 279 277 275 274 273 272 272 271 271 270 270 269 269 268 268 269 268 268 268 268 268 268 268 269 269 269 269 270 271 272 273 273 274 274 275 275 275 275 275 277 279 281 283 284 285 286 287 288 288 288
275 273 274 273 271 270 269 268 262 265 272 274 276 278 279 278 277 275 274 276 276 277 277 276 277 278 278 279 279 280 279 279 278 279 279 280 279 276 274 273 272 272 271 271 270 269 270 269 268 268 268 268 268 268 268 267 268 267 267 268 267 268 268 269 270 271 272 273 274 274 275 275 275 275 276 277 280 282 283 284 285 286 287 288 288 289
278 276 274 267 274 265 269 267 268 273 272 275 274 275 276 274 274 273 269 273 277 278 278 277 277 278 278 279 279 279 278 277 276 278 281 279 277 276 274 273 272 272 271 271 271 269 269 269 268 268 268 267 267 267 267 267 267 267 266 266 267 267 268 268 268 270 271 273 274 274 275 275 275 275 276 276 278 282 284 285 285 287 288 288 288 288
279 273 275 269 268 272 266 265 266 267 264 270 275 278 279 279 278 278 275 271 278 278 279 278 277 278 278 278 278 277 276 274 273 275 279 278 276 275 274 274 273 272 271 271 271 270 270 269 268 268 267 266 266 267 267 266 266 266 265 265 266 266 267 267 268 269 271 272 274 275 275 275 275 275 276 277 278 280 284 287 287 288 288 288 288 288
278 278 276 273 269 269 267 265 264 262 266 276 275 277 278 279 279 278 273 269 277 278 279 279 277 278 278 277 276 275 273 270 271 275 278 276 274 274 272 272 272 271 271 270 269 268 269 268 268 267 267 266 266 266 266 266 265 265 264 265 265 266 266 266 267 269 269 270 271 274 275 276 276 276 276 278 279 281 284 286 287 288 288 288 288 288
273 274 273 270 268 269 267 265 264 269 268 275 277 277 278 279 279 276 265 267 275 278 279 279 278 278 277 276 275 273 272 269 271 274 276 274 273 273 272 271 270 270 270 270 269 269 269 268 267 266 266 265 265 266 266 265 265 264 264 264 265 265 265 266 267 268 269 269 270 272 274 276 276 276 276 277 279 281 283 287 288 288 288 288 288 288
271 271 273 267 269 269 270 266 269 270 276 278 278 279 278 279 276 266 263 272 279 279 280 279 278 278 277 275 274 272 275 275 275 275 274 273 272 271 271 271 270 270 269 269 268 270 268 267 266 265 265 265 265 265 265 265 264 263 264 264 264 264 265 266 267 267 268 268 269 270 273 275 276 276 277 278 279 280 284 287 287 287 287 287 288 288
270 270 269 272 268 267 269 267 267 270 276 279 279 280 279 274 266 267 276 280 279 279 280 278 277 278 276 274 274 274 274 274 273 273 272 271 270 270 270 270 269 269 269 269 269 268 267 266 265 265 265 265 265 265 265 264 263 263 263 263 263 264 265 266 266 267 267 267 268 269 271 273 276 277 278 279 280 281 282 285 286 286 287 287 287 287
271 268 267 268 271 271 270 265 264 261 274 280 278 276 279 271 272 279 280 280 281 278 278 278 278 277 275 273 274 273 272 272 272 271 271 270 269 269 268 268 267 267 267 266 266 266 266 265 264 264 264 265 265 265 264 263 262 262 262 261 262 264 265 265 265 266 266 266 267 268 270 272 274 277 279 280 281 281 282 283 285 286 286 286 286 287
277 268 270 271 274 264 267 262 264 273 278 280 278 273 277 279 281 281 280 279 281 279 277 277 277 275 273 272 271 271 271 270 270 270 269 268 268 268 267 267 267 267 266 266 266 265 265 264 264 264 264 264 264 264 264 263 261 261 261 261 263 264 264 264 264 265 265 265 266 268 269 272 273 277 280 281 282 282 282 283 284 285 286 286 287 287
279 272 276 270 276 270 269 273 277 279 280 281 281 281 281 282 283 282 281 280 279 278 276 275 275 274 272 270 269 269 269 270 269 269 267 266 266 266 266 266 265 265 265 264 264 264 264 263 263 263 263 263 263 263 263 263 261 260 260 262 263 263 263 263 264 264 264 265 266 267 269 271 273 276 280 283 283 282 283 283 284 284 286 286 287 287
279 279 279 276 275 279 279 280 281 280 279 280 281 282 281 280 278 279 279 279 279 277 275 275 274 272 270 269 267 268 268 269 267 267 266 265 265 265 265 265 265 265 264 263 263 263 263 263 263 262 261 262 263 263 263 262 261 259 260 262 263 263 263 263 263 263 263 264 266 267 269 270 272 275 279 283 284 284 285 285 284 285 286 287 287 287
279 279 276 274 278 275 270 280 278 279 280 279 280 280 279 280 278 278 278 278 277 275 273 272 271 270 269 267 267 267 267 267 266 265 264 264 264 264 264 263 263 263 262 261 262 262 262 262 261 260 260 260 262 262 262 261 261 261 261 261 262 262 262 262 262 263 264 264 266 267 269 270 272 275 280 284 284 284 284 284 285 285 285 286 287 288
274 281 275 276 276 274 274 279 280 281 281 282 281 278 279 278 277 277 277 276 275 273 271 270 269 267 268 266 267 266 265 265 264 263 262 262 262 262 262 262 262 261 262 262 262 262 261 261 260 259 259 260 261 262 261 261 260 261 261 262 262 262 262 262 262 263 264 265 266 267 269 271 274 277 280 284 285 285 285 285 286 286 286 286 287 288
278 279 273 277 275 277 279 280 280 280 280 280 281 282 282 281 277 275 274 272 271 270 270 269 269 268 267 266 266 264 262 263 263 262 262 261 262 262 261 261 261 261 261 261 261 261 260 260 259 259 259 259 261 261 260 260 260 261 261 261 261 261 261 261 262 264 264 266 267 269 271 273 275 278 280 283 285 286 286 286 286 287 287 288 289 289
276 274 278 276 273 273 274 276 279 273 274 279 280 281 279 278 277 274 272 271 270 269 269 267 267 267 266 265 264 263 261 261 262 262 261 261 260 260 260 260 260 260 260 261 260 260 260 260 259 259 259 259 260 260 259 259 259 260 261 261 261 261 261 261 263 266 268 269 270 272 273 275 277 279 281 283 285 285 286 287 288 288 287 288 288 289
276 277 277 274 274 273 278 280 281 280 280 281 281 279 276 276 275 273 272 271 270 269 268 266 265 264 264 264 263 262 261 261 261 262 260 260 260 260 260 260 259 259 259 260 259 259 259 259 259 259 258 259 259 259 258 258 259 260 260 260 260 260 261 261 263 266 268 270 272 274 276 278 279 280 281 282 284 285 286 286 287 288 289 289 288 289
Wind_Speed
4 6 3 4 4 7 6 3 5 6 5 7 5 6 10 11 10 7 10 7 12 16 7 13 12 10 10 14 10 15 15 13 12 12 10 10 9 8 8 9 10 11 11 10 11 12 12 14 13 14 13 15 17 18 18 18 19 19 17 17 18 17 18 16 16 16 16 16 15 12 11 12 9 12 12 12 13 15 15 14 12 12 12 11 9 10
2 4 0 0 3 4 5 3 2 4 4 4 8 8 10 9 11 10 14 5 9 12 15 15 18 8 9 16 12 12 14 13 11 11 11 10 8 8 8 9 9 8 7 10 12 13 13 13 14 13 13 15 18 19 20 20 19 19 18 17 17 15 16 16 16 15 15 15 15 16 12 11 12 10 12 15 13 12 12 14 15 13 12 9 13 14
5 4 3 2 2 3 1 1 1 3 7 5 5 7 8 7 12 10 1 3 9 10 15 17 18 8 12 5 15 12 13 10 9 10 9 10 11 10 10 10 9 11 12 12 14 14 15 15 14 13 13 13 15 15 16 17 18 19 17 16 15 14 14 14 15 15 15 15 17 18 16 12 12 13 11 12 14 12 12 13 14 13 14 12 10 13
4 1 2 2 2 3 2 2 2 5 5 4 6 6 7 8 10 9 1 7 14 7 11 12 15 10 3 13 13 10 11 10 8 7 6 8 11 10 9 8 10 13 14 15 16 16 15 14 13 13 12 13 13 14 15 16 16 14 14 16 15 14 13 12 13 15 16 17 19 18 17 16 11 12 13 14 12 15 15 15 16 15 15 14 14 11
6 6 3 4 3 2 5 2 2 4 7 1 1 3 5 8 7 5 14 18 14 5 6 12 14 4 11 5 7 8 8 8 5 7 11 10 9 8 9 8 10 11 13 15 17 17 16 16 17 15 15 13 13 13 14 15 15 12 16 17 16 13 12 12 13 15 15 15 16 17 18 16 13 9 9 10 12 12 13 15 15 16 19 16 12 12
6 2 2 1 1 3 3 6 2 3 7 4 4 3 4 6 10 12 14 17 14 8 6 16 15 4 4 2 8 8 5 7 7 12 13 12 10 10 11 11 12 11 12 14 15 17 16 17 17 17 16 16 15 15 14 14 15 16 15 16 16 13 11 11 13 14 13 13 13 15 16 16 14 13 11 11 12 11 9 9 9 14 15 15 16 14
3 1 1 1 1 2 3 4 2 2 4 6 1 2 4 6 8 12 14 11 12 12 6 11 7 14 7 2 10 7 7 6 6 8 10 11 10 11 11 12 13 15 16 16 20 22 23 21 20 19 18 16 16 16 14 14 15 17 16 15 15 14 12 10 10 13 11 12 12 14 15 15 14 14 12 12 13 12 13 12 13 14 14 14 13 15
2 0 1 2 2 3 4 7 3 1 3 4 3 3 4 7 11 13 12 7 12 9 8 5 7 10 10 2 9 9 7 5 9 11 12 12 12 14 14 15 18 18 21 21 23 24 25 23 21 22 20 17 17 16 14 14 15 17 18 17 15 14 14 11 11 11 10 10 11 13 14 14 15 15 16 16 15 14 12 14 15 14 15 17 16 15
1 1 1 2 1 2 5 2 2 1 2 2 2 1 6 7 9 11 9 10 9 8 9 2 6 5 4 5 6 4 3 8 11 13 14 14 14 16 16 17 21 21 22 23 22 24 24 24 25 23 22 20 18 15 13 14 14 15 16 17 16 16 16 14 13 12 11 10 10 10 10 12 12 14 14 14 13 13 13 14 13 11 13 16 18 14
1 1 2 1 2 4 3 2 1 3 1 1 2 4 6 7 8 7 8 11 8 5 10 7 4 7 11 5 8 7 6 6 10 11 11 11 12 14 17 21 22 21 20 20 22 23 24 24 24 24 24 24 22 18 14 15 14 14 15 17 18 18 15 16 15 12 13 12 10 10 11 12 11 11 14 15 16 14 14 14 16 15 14 12 11 13
1 2 2 2 1 2 4 3 2 6 2 7 4 5 4 9 9 7 7 3 5 6 9 4 3 2 8 5 3 1 3 4 8 9 11 12 15 19 19 21 20 20 20 19 22 22 24 24 26 25 26 26 25 21 21 18 15 15 15 17 18 19 16 17 18 14 13 12 11 10 10 11 12 13 13 14 16 16 16 15 15 14 13 12 9 12
1 2 3 2 2 1 2 3 2 2 3 3 4 7 10 6 4 8 4 1 1 5 6 6 5 3 8 4 4 6 4 6 9 11 14 15 18 19 21 21 21 20 19 21 20 22 24 26 25 25 25 26 26 24 22 20 19 18 18 18 19 20 20 18 17 17 14 11 11 10 10 10 10 10 10 12 15 15 16 17 16 15 13 13 11 13
2 3 2 3 1 1 3 3 4 2 1 2 5 7 6 7 6 4 3 5 5 6 6 6 4 9 10 9 5 6 6 5 8 9 13 15 19 20 20 21 18 17 21 21 21 21 22 24 26 27 27 27 25 24 25 24 21 19 20 22 21 21 21 19 19 18 18 14 12 11 10 9 8 9 9 10 12 12 13 14 15 16 15 13 12 9
1 3 3 1 2 2 3 5 2 3 4 4 4 2 3 7 6 9 8 5 8 5 9 4 4 11 16 11 6 6 5 6 10 10 13 12 15 17 19 18 18 19 20 21 21 21 23 24 25 27 27 26 26 27 26 26 27 23 21 24 24 23 21 19 18 19 19 16 14 12 11 9 8 9 8 8 9 11 11 11 14 13 15 15 14 14
4 2 7 6 3 1 1 3 2 2 3 4 4 2 0 2 3 8 5 7 8 12 12 11 3 4 4 3 9 5 1 5 10 11 8 10 15 17 18 19 19 20 20 20 21 22 25 27 29 27 27 27 26 29 27 24 25 26 25 25 26 25 24 22 21 19 19 17 15 13 11 10 8 8 8 8 7 9 13 13 14 14 13 15 15 14
6 5 3 4 1 2 4 1 1 4 4 5 1 2 3 4 3 8 3 3 8 14 13 3 5 1 5 9 8 6 6 13 13 12 11 15 18 19 18 18 18 19 21 21 23 25 26 26 27 26 27 27 27 29 27 28 26 26 27 28 28 26 24 23 21 19 18 18 15 14 13 12 10 8 8 7 7 7 10 12 12 15 14 14 17 15
1 5 5 3 0 6 3 1 1 3 3 4 3 3 0 4 4 6 5 5 4 7 15 6 10 7 1 9 8 4 12 13 13 14 16 19 20 21 19 20 20 21 23 24 25 25 29 27 28 28 31 27 28 28 29 29 28 29 28 27 29 27 24 23 22 21 20 19 18 16 14 13 11 11 11 9 10 10 10 11 12 13 14 15 16 17
4 1 3 4 3 6 3 3 6 4 3 3 4 0 4 5 2 2 4 4 6 8 10 4 11 15 6 7 5 5 12 15 16 16 20 22 22 23 22 21 23 25 26 28 28 28 28 26 30 29 28 29 29 30 30 31 29 25 25 25 27 27 26 24 22 22 20 20 18 17 15 14 13 11 11 10 10 9 9 11 12 11 13 13 16 19
3 6 6 1 7 3 2 2 5 4 6 3 3 3 2 3 3 5 3 4 8 9 10 9 14 11 10 8 4 9 15 17 18 21 24 25 25 24 24 26 25 26 26 27 27 23 25 29 33 32 32 32 31 31 30 26 25 24 24 25 26 27 26 25 20 20 18 18 15 13 14 14 13 12 11 10 10 9 9 11 12 13 13 13 14 17
2 3 1 2 3 4 2 1 4 5 2 3 1 3 3 0 3 4 1 2 2 12 7 10 7 13 1 1 2 11 14 13 18 21 23 25 25 24 23 23 25 26 26 26 27 31 33 29 31 33 32 31 33 33 27 24 22 25 25 26 28 28 26 23 23 21 20 18 17 17 15 14 13 13 11 11 11 10 10 10 11 13 15 13 12 14
3 2 5 6 1 1 4 8 5 7 5 5 6 5 3 3 1 3 3 4 6 6 5 10 14 6 4 3 8 13 10 13 18 22 22 22 23 24 24 25 26 27 26 26 25 27 31 31 30 32 30 28 27 20 19 21 25 24 23 23 23 22 26 28 24 22 20 17 18 18 18 16 14 15 13 12 11 11 10 9 8 10 13 13 13 14
2 5 5 5 4 7 3 7 3 2 3 6 7 7 7 4 3 3 7 5 1 4 5 6 14 14 4 4 7 6 7 12 19 21 22 23 24 25 24 27 28 27 27 27 29 29 27 31 30 30 30 24 20 20 25 25 24 24 22 21 20 19 18 23 22 21 21 19 17 18 18 17 15 14 12 12 12 11 10 9 9 10 11 13 14 12
1 2 2 5 6 4 4 4 3 6 6 6 6 5 6 3 5 2 6 2 1 6 3 10 12 17 2 5 2 5 9 17 19 20 22 22 24 25 26 27 28 28 28 30 33 30 27 26 29 27 28 27 28 26 25 23 22 22 23 23 21 20 20 19 21 22 22 21 21 21 18 16 15 13 14 14 13 11 10 9 9 8 9 12 13 13
3 2 2 7 2 5 3 4 5 4 8 6 4 5 6 7 6 5 6 6 6 6 6 9 12 12 3 3 1 8 16 17 15 19 22 21 22 25 27 28 29 28 28 26 23 28 28 27 25 19 24 24 21 24 27 24 22 20 21 22 22 23 23 21 19 21 22 22 22 22 22 20 16 15 14 14 12 12 10 9 8 8 9 11 11 14
3 4 6 2 2 4 3 3 4 1 1 4 6 8 9 4 4 3 4 3 4 10 11 7 12 9 6 2 10 15 16 18 20 20 19 22 22 24 26 26 25 25 27 31 32 31 33 32 29 24 24 25 26 26 26 24 22 23 24 21 21 21 21 20 19 20 22 22 23 21 20 21 19 16 15 15 13 13 11 9 8 7 10 10 13 14
2 2 4 4 7 8 6 4 3 7 10 7 6 8 9 8 8 5 5 6 8 5 11 9 12 16 14 15 19 17 17 21 21 21 21 21 24 26 25 26 28 29 28 31 31 32 34 30 28 27 26 25 30 27 26 26 27 23 22 23 22 22 21 19 18 19 20 19 22 22 21 19 20 21 19 16 15 14 12 9 7 8 9 9 13 14
2 0 6 10 9 11 9 3 6 6 4 7 8 9 10 10 10 8 5 6 11 9 10 17 17 20 23 20 18 19 20 22 22 23 24 24 26 26 25 25 25 26 27 29 28 28 30 30 32 32 34 27 26 27 25 25 28 25 23 24 23 21 20 20 18 19 19 20 19 18 21 20 20 20 20 18 14 12 10 8 9 9 10 9 11 13
1 2 9 12 16 13 10 9 1 3 9 10 8 11 9 12 10 11 11 10 6 7 14 16 10 12 16 17 19 21 20 20 20 24 25 24 24 23 24 27 29 28 27 28 30 32 32 31 31 29 29 33 30 25 28 26 24 24 24 23 23 22 21 18 19 20 19 19 19 19 18 19 20 19 19 17 14 12 9 8 9 8 9 9 11 12
4 3 3 8 12 11 8 10 7 5 9 8 10 13 14 10 11 13 15 15 13 10 15 15 13 17 19 17 20 20 19 18 22 25 25 23 22 23 26 28 27 27 30 31 30 31 32 30 31 35 33 28 29 31 29 25 24 25 24 23 23 22 22 21 21 20 20 19 19 18 17 17 19 17 17 16 13 12 10 9 10 8 8 9 10 11
2 5 4 5 7 7 6 10 10 10 9 10 13 16 15 11 14 15 14 15 17 19 20 19 20 23 20 17 18 18 16 18 19 20 22 22 22 25 26 27 26 27 28 30 31 31 31 31 31 30 32 33 32 30 29 26 27 25 24 23 22 23 24 22 22 21 21 20 19 18 17 17 18 18 20 20 17 14 12 10 10 9 10 11 10 11
4 2 7 2 2 7 9 10 12 11 10 11 14 18 17 14 15 15 13 13 14 18 20 19 20 20 14 12 13 16 16 16 17 21 22 20 19 24 25 26 27 28 28 29 31 32 31 32 32 33 35 32 32 31 28 28 27 26 26 23 23 23 21 22 23 22 22 22 20 21 20 18 17 17 18 19 19 16 12 10 10 10 10 11 11 11
5 2 4 1 3 5 6 9 8 6 7 10 13 21 17 14 14 12 9 9 10 13 13 13 14 13 10 12 16 17 18 19 19 19 19 17 21 23 22 24 26 26 27 28 30 31 32 34 36 35 33 35 32 31 29 29 27 26 25 24 23 23 22 22 23 23 23 24 23 22 22 21 19 19 19 18 19 17 16 15 14 12 12 12 12 11
5 4 2 2 3 5 4 5 2 3 6 9 14 20 17 13 12 9 10 10 13 14 11 10 12 12 14 15 17 20 21 21 17 16 18 20 20 20 22 24 25 25 24 25 29 33 33 33 31 33 35 31 30 32 31 27 27 25 25 25 24 23 23 23 23 23 24 23 22 23 22 21 19 19 18 18 18 17 17 16 16 15 13 13 12 11
2 4 2 2 3 1 3 2 3 4 9 7 2 4 7 8 9 11 10 10 13 11 9 10 13 14 14 13 16 19 21 19 16 17 17 17 17 16 19 21 22 24 23 22 24 28 31 30 30 32 31 31 33 30 29 27 25 26 25 24 24 23 23 23 24 23 23 22 22 22 22 21 21 20 19 19 18 17 17 17 17 15 13 12 11 11
7 4 3 2 2 2 2 3 4 12 10 4 3 3 2 5 9 11 12 12 12 13 14 16 15 13 12 12 14 16 18 18 16 19 20 18 10 13 16 20 22 24 26 25 25 27 30 31 33 33 34 33 31 30 28 26 25 26 25 24 24 22 23 24 24 23 22 22 23 20 19 22 20 22 20 19 19 17 18 17 16 15 13 11 12 12
6 6 4 2 2 3 2 4 5 4 6 4 7 9 1 4 9 8 12 13 14 14 11 13 13 12 12 14 13 12 15 18 17 17 15 5 4 14 14 15 20 22 25 25 26 26 31 32 32 33 34 31 30 29 26 27 27 25 25 24 24 23 23 23 23 23 23 22 18 20 20 19 21 19 19 19 19 17 17 16 15 15 13 11 12 11
9 4 4 1 4 5 3 6 9 8 12 12 8 3 7 5 2 4 8 9 4 8 9 10 10 12 13 12 11 11 13 17 15 12 5 7 14 16 16 16 17 19 21 24 24 23 25 29 31 32 30 30 30 28 28 27 25 26 26 25 23 23 23 22 22 22 23 21 22 18 19 19 19 19 18 18 18 18 15 14 13 13 10 10 11 11
8 9 4 6 5 4 5 5 6 4 7 3 6 5 5 4 3 2 4 12 6 9 5 4 11 12 13 11 10 11 13 14 14 14 13 17 19 21 22 20 20 21 22 24 25 25 27 30 30 30 28 30 30 28 26 26 24 25 25 24 24 23 23 22 22 22 22 22 20 21 19 18 17 17 17 16 17 18 15 12 10 10 9 9 10 11
5 5 5 6 5 1 3 6 6 5 4 3 10 8 5 7 4 4 2 11 4 9 6 7 9 11 10 10 12 10 9 10 14 14 15 19 21 21 21 22 21 22 23 24 24 25 29 31 30 28 30 31 30 28 27 27 26 23 23 24 23 22 22 22 23 22 21 22 22 21 19 17 16 16 17 16 15 15 16 14 11 9 7 8 9 11
7 7 6 8 9 8 3 5 8 3 4 2 8 6 10 6 6 2 6 4 9 7 6 4 7 9 9 7 8 8 6 10 14 15 17 17 18 20 18 20 21 21 23 24 25 24 27 29 30 31 32 31 29 29 29 27 24 24 24 24 23 23 22 22 22 23 22 22 21 21 19 17 17 16 16 17 17 15 16 12 7 7 7 8 8 9
7 7 11 13 11 10 12 9 6 7 9 13 11 6 11 10 7 2 9 3 3 3 1 2 6 7 5 6 4 7 7 7 12 16 16 16 18 20 20 19 19 19 20 22 23 26 24 26 28 28 28 24 25 25 26 24 23 23 23 24 23 23 23 23 23 23 23 21 20 21 21 17 15 16 16 14 14 15 14 8 7 6 7 8 9 9
6 4 4 7 10 13 11 9 7 9 13 10 5 7 10 6 5 10 1 4 1 5 3 2 6 6 4 7 6 7 11 11 13 13 14 15 16 18 19 21 22 21 19 19 22 22 23 27 30 30 29 25 24 24 22 22 24 23 23 23 24 27 25 23 23 22 22 22 21 21 20 19 17 16 15 14 13 13 13 11 8 7 8 8 9 10
12 9 8 9 6 6 8 5 1 7 4 8 11 6 9 6 7 2 2 3 2 3 3 4 4 5 4 8 7 9 12 12 12 13 13 15 16 17 19 21 22 22 24 25 27 28 26 26 28 29 30 28 27 20 21 25 26 24 24 25 27 25 24 23 22 22 22 22 21 21 21 19 19 17 13 13 13 13 14 12 10 9 9 10 10 10
9 4 4 6 8 6 9 8 9 9 2 9 13 4 8 13 4 2 1 6 3 3 3 3 4 2 3 5 9 11 11 12 12 12 14 15 15 16 17 18 19 20 20 20 20 23 25 25 26 28 29 26 23 24 24 23 24 24 26 27 25 24 24 23 22 22 22 21 20 20 19 18 17 17 15 15 13 12 13 12 11 9 9 9 9 8
13 10 5 5 7 8 7 8 8 5 5 9 7 3 5 5 1 3 4 4 4 1 2 2 4 2 2 4 7 9 11 10 12 12 13 16 17 17 18 19 20 21 22 23 24 25 23 24 29 30 30 27 27 25 19 17 23 28 29 27 24 24 24 24 24 22 21 21 20 19 18 17 15 16 15 12 12 12 11 11 10 9 8 8 9 8
3 4 3 3 6 3 7 5 5 4 7 8 7 3 5 4 2 2 5 4 3 2 2 3 3 2 2 2 5 7 7 10 12 14 14 15 15 16 16 18 18 19 20 19 20 23 23 25 26 27 27 29 27 23 21 23 22 26 27 25 24 23 23 24 24 22 21 20 17 17 17 17 17 16 15 13 10 10 10 9 8 8 8 8 8 7
8 4 4 7 2 5 7 10 14 13 9 10 10 1 1 2 5 4 4 3 2 3 1 2 2 2 3 2 5 8 11 11 12 13 12 13 15 15 16 17 18 18 21 23 23 23 24 25 25 28 29 30 27 24 25 25 22 21 23 24 24 24 25 24 23 22 20 18 16 16 15 15 12 11 12 9 9 8 8 8 8 9 8 8 7 7
8 7 5 9 8 11 9 6 7 1 2 5 5 6 5 5 4 4 3 3 3 2 1 1 1 3 3 3 3 5 9 10 11 12 13 12 14 14 15 16 19 19 19 18 20 23 23 23 25 27 30 27 25 26 26 26 25 24 24 23 24 23 23 22 20 18 18 19 15 13 12 12 16 15 11 8 6 6 6 7 8 8 9 8 8 7
4 7 4 7 9 8 9 11 13 4 5 9 10 9 6 5 7 6 5 5 4 3 2 2 3 3 3 4 2 4 8 10 9 12 14 14 13 13 14 16 17 18 19 21 21 21 21 22 24 26 26 26 23 24 25 28 26 23 25 25 24 23 22 21 23 19 18 16 12 11 11 10 11 10 11 9 7 6 7 7 7 8 8 8 7 7
4 8 5 3 6 7 7 10 4 2 5 5 8 8 6 6 8 8 6 4 5 4 4 4 4 3 3 3 3 3 7 9 9 10 14 13 12 14 16 16 16 18 18 18 18 20 22 24 25 26 25 23 23 24 26 26 25 25 25 26 23 22 21 21 18 17 15 11 9 9 10 9 8 8 9 9 8 8 8 10 14 11 9 8 10 14
9 10 9 8 7 8 11 7 5 7 8 8 4 5 7 8 8 9 8 8 7 6 6 5 5 5 5 4 3 4 7 9 11 10 13 12 12 11 13 16 17 17 17 18 20 21 22 23 23 24 24 22 21 23 25 25 24 26 25 25 24 22 21 19 17 16 16 16 16 17 16 12 9 7 7 7 8 7 8 7 8 16 19 17 13 11
Wind_Direction
283 355 347 332 348 345 328 289 288 305 305 290 271 273 289 295 296 275 301 354 1 340 333 328 329 341 311 336 46 104 97 85 78 65 56 48 45 43 41 32 20 18 11 357 360 357 351 347 343 344 345 349 350 351 348 346 346 346 346 343 346 345 344 341 341 340 336 330 322 314 309 301 280 254 246 236 232 228 218 207 212 214 210 212 199 193
246 338 276 226 360 312 313 285 255 268 221 268 301 296 308 303 301 313 294 4 353 3 309 335 328 353 327 330 93 103 92 79 67 62 53 45 42 40 31 20 17 8 360 355 356 358 356 350 347 345 345 346 349 349 348 350 345 343 344 343 340 343 344 340 339 338 332 328 324 317 304 298 293 282 259 249 232 229 227 215 202 199 209 195 193 196
334 327 88 85 77 101 120 213 237 275 305 288 300 309 295 319 321 290 241 17 0 323 307 330 321 348 321 17 91 90 93 95 83 69 62 42 37 32 25 13 3 1 356 353 356 355 355 353 348 346 342 341 342 337 338 342 340 341 341 342 340 338 339 341 339 337 332 326 322 316 306 299 297 290 274 267 259 233 217 221 223 204 197 192 197 200
321 54 80 72 145 178 165 156 267 273 235 303 319 312 317 340 355 318 174 343 323 300 300 326 312 310 331 88 98 100 106 115 108 88 71 52 37 22 14 8 356 353 351 348 349 348 347 348 348 342 338 337 334 334 336 338 337 334 333 331 333 334 336 336 339 333 330 324 317 313 310 305 293 288 290 277 263 249 232 228 224 226 219 197 188 188
268 338 94 110 123 212 327 214 281 319 310 86 346 311 324 340 329 290 311 319 315 263 347 324 313 304 146 133 112 111 122 112 91 52 39 38 38 25 8 359 347 339 343 342 342 342 342 343 347 347 341 333 327 325 329 333 332 329 326 327 325 325 331 331 335 336 333 329 326 324 320 318 313 294 282 287 277 256 242 228 222 224 222 215 192 176
258 33 345 142 69 31 327 317 42 338 299 316 100 31 326 307 313 317 318 332 324 318 96 13 332 321 108 38 152 144 128 74 47 31 22 20 18 9 3 1 355 346 338 337 341 343 342 343 343 344 338 333 324 322 326 326 323 322 318 318 319 320 320 326 329 333 334 330 326 325 324 323 322 314 309 296 286 273 252 247 235 227 223 215 205 184
321 77 328 20 86 56 6 283 334 187 293 298 50 327 321 307 307 312 321 339 310 310 359 31 302 288 307 53 137 126 97 80 53 31 22 18 15 6 359 354 348 347 348 350 349 347 343 342 344 342 337 328 323 321 318 318 317 318 317 314 317 315 314 315 320 328 330 331 329 324 319 313 311 312 304 299 294 284 274 250 224 220 218 222 207 199
156 119 91 89 28 4 327 292 92 323 297 275 75 314 299 309 316 314 312 287 275 297 301 182 224 265 293 309 139 125 111 78 31 20 12 13 8 4 2 359 358 356 353 351 347 343 341 339 335 334 333 330 323 316 312 312 313 314 317 316 313 313 311 309 312 320 322 323 324 322 320 321 320 318 311 308 300 294 277 261 243 230 221 212 212 210
171 140 92 358 21 283 275 338 65 182 238 22 332 252 289 300 302 301 296 289 293 324 308 180 200 274 269 143 131 130 11 16 16 7 4 5 4 359 0 358 354 355 352 347 340 337 336 335 335 331 328 325 319 314 307 305 305 305 308 311 311 308 309 310 309 310 316 314 316 316 318 321 316 316 314 310 304 297 283 263 255 235 223 216 208 203
319 12 71 231 253 267 97 78 117 177 211 72 327 250 247 265 266 258 282 293 307 323 288 284 247 267 273 268 289 121 104 15 4 358 3 4 360 355 356 355 353 350 345 340 336 334 332 331 328 327 326 324 325 320 307 301 300 299 302 305 307 305 304 305 302 300 304 309 309 313 316 313 312 319 320 321 316 310 300 276 256 243 227 218 208 204
319 311 312 231 270 25 134 98 45 68 67 279 240 288 314 307 305 288 274 306 307 248 260 260 98 344 289 282 251 349 50 34 355 350 357 358 358 359 355 350 346 343 339 333 329 329 327 325 323 324 322 321 320 318 314 308 298 297 296 299 301 299 297 298 301 295 291 298 299 305 311 310 314 319 320 320 319 320 317 303 276 253 230 215 209 202
19 138 177 66 26 91 124 132 162 207 276 311 9 1 331 276 205 257 282 257 281 278 149 128 139 29 289 278 106 93 91 31 7 359 355 358 357 354 348 343 340 336 332 328 327 325 325 323 322 321 319 317 316 313 310 307 303 299 297 293 294 295 294 293 295 295 288 286 287 289 296 300 303 307 314 317 314 314 312 310 304 284 249 224 211 203
202 147 35 318 359 229 187 216 171 194 113 36 25 17 342 307 327 302 197 281 229 270 145 172 359 324 250 280 126 135 71 23 12 4 3 0 354 345 339 336 331 332 328 327 326 324 323 322 321 320 318 315 313 312 309 307 301 296 295 293 289 291 292 289 289 292 290 285 283 286 292 294 295 299 303 308 309 310 310 311 309 309 281 233 211 193
243 93 317 209 199 2 227 223 170 197 52 39 51 25 331 334 337 296 305 272 277 251 136 124 50 257 273 265 187 147 59 24 5 13 10 356 342 336 331 327 327 327 324 324 322 324 322 319 318 317 317 316 314 312 310 310 309 301 295 296 293 286 286 284 280 283 286 280 279 279 283 288 291 298 298 299 302 307 305 304 305 304 303 280 232 202
272 226 191 185 172 99 54 28 24 360 48 74 108 189 220 288 286 292 308 309 308 297 285 275 244 219 317 104 159 119 74 354 11 4 357 343 335 330 327 322 325 324 322 320 321 322 321 320 319 319 317 316 315 313 312 310 310 310 304 298 295 291 289 287 280 279 280 280 272 269 272 278 279 283 293 288 291 302 304 306 304 302 301 301 270 222
231 281 57 2 344 288 116 8 318 101 129 115 50 205 230 228 245 251 336 314 314 313 312 161 208 241 282 128 157 156 336 5 2 346 338 331 330 329 324 324 324 323 321 322 320 320 322 321 318 318 317 313 312 313 311 309 309 306 303 299 294 290 286 287 281 272 274 277 272 262 263 269 272 270 270 279 281 286 291 295 299 297 299 297 294 252
126 229 89 90 340 43 33 218 37 342 260 132 173 245 45 61 229 277 296 155 220 264 260 265 282 281 161 158 129 9 0 347 345 339 332 331 331 329 326 327 327 325 324 324 323 324 324 322 322 321 317 313 312 312 311 310 310 306 303 299 296 292 287 283 281 273 272 273 272 265 258 261 267 269 270 275 278 282 289 290 289 293 295 298 296 274
263 359 161 167 157 64 325 83 70 19 340 122 244 284 89 149 122 214 267 314 278 268 271 282 280 298 308 290 126 340 350 341 336 335 332 331 333 329 328 329 330 327 325 324 323 323 323 321 316 314 313 313 312 312 312 311 309 306 305 301 297 295 289 285 280 275 269 270 271 266 259 257 259 265 271 269 273 279 285 288 293 293 296 300 298 293
78 281 169 276 93 114 251 139 92 49 0 312 317 27 227 234 216 127 105 311 312 284 297 283 294 272 277 278 37 342 345 338 335 334 333 333 333 329 327 329 328 324 323 323 324 321 323 321 321 317 312 311 313 313 312 313 311 312 315 313 305 295 288 283 277 274 268 265 266 263 256 255 258 259 265 270 270 273 274 285 291 293 291 296 299 300
272 225 355 152 140 149 207 205 229 136 95 52 60 171 358 277 248 161 312 230 257 271 301 290 348 290 233 326 352 330 344 335 332 331 331 329 328 326 326 326 325 323 322 321 322 325 325 316 314 314 312 313 315 315 316 322 324 321 318 314 311 309 299 284 275 271 265 261 261 260 256 252 251 256 254 261 267 270 269 272 282 292 293 291 298 295
192 111 264 133 179 136 219 188 222 155 165 159 181 184 190 154 9 145 260 182 231 262 258 286 299 283 107 85 345 334 334 333 330 327 326 324 323 323 324 324 323 321 320 319 319 320 320 316 311 313 316 316 315 322 326 320 312 308 305 298 295 295 301 295 283 275 269 263 260 259 257 254 254 253 252 257 258 261 268 265 267 283 286 294 291 296
176 188 223 149 204 215 194 44 5 153 201 223 211 216 183 163 179 260 277 131 357 228 248 267 267 274 274 343 301 298 330 327 324 322 320 320 322 323 325 323 322 320 319 317 316 313 313 316 314 316 318 318 322 317 317 316 311 309 308 308 304 299 297 300 301 291 281 273 263 260 258 256 253 250 252 257 261 260 264 264 272 280 287 286 288 293
187 55 172 224 214 238 31 346 293 253 228 214 211 191 143 161 147 208 271 221 167 230 175 251 283 284 132 185 192 329 328 326 320 321 320 323 323 322 321 321 319 319 319 321 321 315 309 315 320 319 321 321 321 318 318 317 318 317 319 319 314 309 306 302 302 305 300 289 280 272 264 259 253 246 249 255 257 260 264 266 271 280 279 285 291 294
100 138 235 239 147 94 92 76 50 78 142 136 181 159 181 192 184 202 244 284 279 259 244 252 246 255 147 103 348 334 325 315 315 322 322 323 322 319 320 319 321 324 321 313 310 315 316 319 321 323 323 319 317 316 317 315 315 313 313 314 316 318 319 318 313 305 303 301 293 285 279 271 258 252 250 252 254 255 256 260 270 279 279 283 289 291
145 196 154 259 257 171 134 131 125 58 290 213 188 190 200 204 158 231 262 252 248 238 220 217 250 273 146 66 327 323 314 314 319 321 324 322 320 318 319 321 322 318 317 319 319 319 323 323 324 327 325 320 318 317 316 311 310 316 315 313 310 309 311 313 316 314 308 304 302 293 284 279 273 260 252 251 255 256 257 254 266 274 280 284 289 290
221 191 160 229 257 270 253 241 194 191 210 217 213 204 207 182 193 159 219 210 242 230 197 222 252 259 281 306 308 309 315 319 320 322 323 323 320 319 321 324 326 324 319 318 321 325 325 323 321 323 322 320 319 317 317 319 319 317 312 311 311 308 309 309 310 310 307 305 304 304 299 289 282 276 265 255 255 256 254 256 255 268 279 282 287 292
187 280 223 229 239 244 267 352 104 105 170 211 214 188 202 200 200 203 198 212 225 255 263 247 246 282 289 297 304 314 323 322 322 324 325 325 322 322 325 325 320 316 317 321 323 322 322 321 323 323 324 324 316 317 313 314 315 313 311 310 311 308 307 306 305 305 306 305 303 297 295 293 288 281 277 268 255 252 249 247 255 264 277 281 283 288
136 217 223 229 245 254 273 292 149 183 254 257 253 251 214 190 185 185 194 220 240 286 268 260 261 258 275 296 304 313 320 321 321 321 322 325 322 324 326 320 315 317 323 326 324 326 325 324 322 322 321 320 321 316 317 314 311 311 313 309 307 307 306 304 303 301 301 302 302 302 302 296 294 290 279 267 259 252 245 249 258 262 271 282 283 283
184 231 241 216 248 252 275 279 273 257 250 252 249 259 253 231 185 185 213 225 238 229 245 269 294 288 286 294 302 310 318 321 321 319 316 318 319 321 320 317 319 324 328 326 325 325 324 321 323 324 324 321 320 321 317 315 314 314 313 309 306 305 302 301 301 299 299 299 297 298 300 301 296 298 302 290 269 258 253 253 261 263 272 276 278 277
97 257 201 232 259 256 250 259 264 258 255 251 252 255 258 245 235 225 226 224 228 240 250 267 276 276 283 293 299 305 315 317 315 312 312 319 323 321 319 320 324 328 327 326 325 324 323 321 320 320 321 323 322 319 317 317 317 314 309 307 305 304 305 306 300 298 297 294 295 295 296 295 294 294 294 289 285 278 268 269 270 274 278 278 276 275
147 270 106 246 269 252 233 243 252 251 248 251 258 262 257 254 254 250 243 239 240 253 257 261 268 275 284 290 300 308 310 310 310 310 315 318 321 321 323 327 327 327 326 324 324 323 322 319 319 322 325 321 318 318 316 316 315 312 308 305 304 302 303 305 302 298 295 293 292 293 292 292 291 289 285 285 281 281 285 282 280 278 277 279 277 274
202 246 89 175 274 265 183 217 246 250 251 250 260 262 258 246 252 246 228 216 212 242 262 275 277 276 293 314 311 306 310 315 316 315 315 319 321 318 326 327 325 324 324 323 324 323 322 323 325 323 319 321 319 317 317 314 311 311 308 307 305 303 302 299 296 294 294 294 291 290 292 289 287 285 283 281 278 277 277 279 280 279 276 278 279 275
193 182 180 179 256 271 119 156 213 275 267 257 245 251 247 238 228 242 239 208 223 248 266 260 263 290 307 315 313 313 316 316 321 321 317 316 311 316 331 325 322 320 319 323 324 326 327 324 318 318 320 318 318 319 318 313 310 308 310 308 306 305 303 298 293 293 291 289 291 288 287 285 282 281 281 279 273 269 270 269 269 272 273 274 274 275
144 181 171 188 238 160 146 337 245 248 249 243 114 178 174 213 235 240 239 227 230 223 241 256 275 290 298 309 311 310 312 315 320 312 304 301 301 323 328 323 317 315 316 317 319 324 325 324 322 320 317 316 317 315 312 310 308 308 308 307 306 305 304 301 295 287 288 288 286 287 282 284 282 280 279 279 273 267 264 266 266 267 268 271 274 271
171 166 200 170 218 248 88 289 286 252 254 70 141 174 189 255 247 244 252 247 246 247 255 267 273 284 293 295 297 300 302 304 310 304 298 294 309 332 328 322 320 320 317 322 324 325 324 321 319 316 319 321 318 314 313 311 312 309 308 309 307 305 302 299 294 289 286 286 285 281 282 280 281 279 278 277 271 262 259 258 261 262 262 265 266 267
171 157 166 216 152 327 221 185 237 257 11 303 267 266 211 245 243 251 268 244 226 240 248 265 279 288 292 294 296 302 305 305 300 285 281 289 348 333 334 327 320 318 319 321 324 323 325 323 317 316 316 313 315 314 313 312 312 310 308 308 305 302 300 300 300 297 293 285 277 280 276 280 279 277 276 277 271 260 254 253 255 256 258 259 262 263
154 132 170 245 212 198 242 212 248 352 305 279 270 219 160 222 238 286 291 294 227 206 243 262 280 289 294 299 305 306 309 305 294 289 316 344 340 340 336 328 322 317 315 314 318 318 319 318 316 314 313 313 313 312 312 313 312 310 308 307 304 301 299 299 298 298 294 287 284 275 277 277 283 277 275 273 276 273 256 251 249 249 248 250 257 263
173 167 206 140 258 154 208 280 283 265 259 221 168 125 78 117 111 270 306 285 239 209 207 243 285 290 298 305 310 316 315 308 314 322 344 348 341 336 333 329 327 322 320 319 320 320 324 324 317 313 314 315 314 316 317 316 313 311 308 307 304 302 301 300 298 299 302 300 293 283 281 278 278 279 273 267 268 275 275 255 243 242 236 245 256 261
200 193 210 221 236 84 212 225 225 216 240 108 167 162 134 118 129 144 345 284 165 157 193 247 277 296 309 316 315 325 327 323 312 316 338 342 333 331 327 324 323 320 319 318 318 319 323 322 316 314 314 313 313 318 321 319 316 312 309 306 306 304 302 301 300 301 302 303 302 297 288 281 277 276 275 270 268 271 272 255 239 235 236 245 253 258
191 210 196 235 231 217 195 238 250 240 255 239 170 134 140 141 143 220 298 272 134 191 203 224 281 298 306 308 307 301 305 312 312 313 327 326 320 315 317 317 318 318 316 317 318 321 321 319 318 319 318 319 318 319 320 319 317 314 309 308 306 304 301 301 302 302 301 298 297 295 288 279 273 269 266 270 274 270 264 259 247 239 245 253 254 261
190 210 211 217 222 227 222 244 287 273 258 248 226 191 143 160 148 171 230 250 107 293 275 226 280 291 289 292 293 299 285 280 288 299 311 313 313 314 316 316 314 314 314 316 316 320 320 321 315 308 318 316 317 324 324 320 319 316 314 310 308 304 303 303 302 300 298 298 296 296 295 289 277 274 271 263 262 273 281 264 249 250 254 260 260 258
205 168 262 225 218 224 225 238 240 277 263 239 208 165 142 144 217 224 209 93 299 304 303 289 295 294 295 280 276 269 286 299 296 300 308 312 311 311 313 315 316 316 315 313 315 321 324 321 314 314 315 316 312 315 324 324 319 316 315 315 310 307 304 302 299 299 298 297 296 293 291 289 280 268 269 264 263 267 266 270 267 260 260 261 261 259
184 169 206 198 202 216 215 210 301 268 286 181 142 114 187 193 239 293 344 297 144 229 278 289 280 290 310 301 294 289 293 301 307 308 310 311 312 315 316 317 318 321 324 327 327 328 327 324 322 314 311 315 320 325 325 325 322 320 319 313 308 306 304 303 302 300 298 297 293 290 289 287 287 279 263 261 259 257 261 261 263 261 259 262 261 257
184 140 210 207 176 159 193 179 199 218 191 152 155 185 183 216 218 228 296 287 162 162 215 265 275 271 301 293 305 306 304 307 308 315 315 312 313 315 315 314 314 316 318 319 319 318 323 321 319 315 316 319 323 322 322 329 329 320 311 306 309 312 308 304 302 299 295 293 290 289 289 289 287 285 263 252 250 253 256 258 257 257 258 259 257 256
200 189 188 195 174 165 196 206 216 219 174 192 209 186 187 208 282 219 231 266 277 249 120 237 276 302 314 301 293 296 303 307 310 317 316 312 314 317 318 318 318 319 323 325 325 324 323 322 322 321 317 318 321 324 331 329 318 316 315 314 315 313 310 305 302 301 297 293 291 289 288 286 286 286 280 251 240 243 247 248 246 253 251 251 250 248
276 208 58 60 226 254 271 222 232 199 195 213 247 220 215 184 216 158 181 226 243 152 175 262 301 305 293 302 301 296 289 305 315 315 315 312 310 310 312 314 316 318 319 321 320 324 324 321 319 318 316 317 322 329 325 324 328 324 318 314 311 309 306 303 301 298 292 290 287 287 288 289 288 284 273 249 243 243 246 247 249 246 248 243 238 238
227 156 163 231 174 176 246 189 210 223 188 207 228 144 33 175 178 173 181 216 158 147 179 245 270 281 283 287 276 292 300 309 311 308 309 308 309 312 316 317 318 321 324 324 324 327 327 326 327 327 325 319 325 325 327 334 325 316 313 315 314 312 311 311 302 295 290 289 290 287 286 284 283 282 285 253 230 233 238 239 242 241 241 237 234 227
248 183 147 230 228 221 237 224 246 100 186 221 195 181 206 193 168 170 154 125 127 126 168 193 174 255 235 248 266 291 295 303 307 309 310 308 309 314 317 318 318 320 321 320 322 327 322 325 326 327 325 323 323 329 330 327 324 321 322 322 319 313 309 304 298 294 293 292 287 283 277 277 280 282 280 275 246 237 233 234 233 238 233 230 223 217
134 119 192 192 225 237 262 267 255 147 214 229 233 231 225 178 162 162 147 143 162 175 190 192 226 245 257 270 295 290 289 288 296 301 302 304 308 311 315 317 317 318 319 325 328 326 327 325 325 324 325 321 325 333 324 324 325 326 329 325 321 318 316 314 308 299 289 288 282 273 272 270 273 278 283 287 277 247 241 236 235 233 240 232 225 216
113 208 164 153 234 229 217 236 192 190 256 218 211 222 181 164 149 152 155 162 184 190 197 207 236 236 241 267 268 280 279 287 292 301 300 300 303 309 314 317 318 319 322 325 323 325 324 326 327 326 326 325 330 325 325 326 323 325 326 328 321 320 319 316 312 321 320 305 283 276 281 266 267 269 276 282 277 272 262 242 235 236 236 242 224 225
200 196 177 210 216 232 233 222 175 224 253 260 197 150 144 151 149 158 184 187 184 186 180 196 213 225 226 235 245 255 270 281 293 304 302 301 304 308 309 316 322 324 325 327 329 329 330 325 324 328 327 330 326 330 328 323 330 329 330 329 328 324 318 314 314 317 317 327 334 332 327 309 283 271 267 268 270 268 266 269 245 233 234 235 236 226